CZ-6A DEB, 54410

Orbit data source: Space-Track

CZ-6A DEB, 54410 is space debris in SSO originally from a launch on Fri, 11 Nov 2022 UTC launched from the Taiyaun Space Center, China (TSC). Debris objects in space refer to the collection of defunct objects orbiting the Earth. Examples of debris include non-operational satellites, rocket bodies, and fragments generated from explosions, collisions, or faulty payload assembly.

Loading next visibility...
Identifier
54410, 2022-151EJ
Orbit
SSO
Country
Flag of CNCN / PRC
Related business
Manufacturer
SAST
Mission
Spacecraft
Bus & Motor
Unknown
Mass
Unknown
Launch date (UTC)
2022-11-11 (4 years ago)
Launch vehicle
Unknown
Launch site
Taiyaun Space Center, China (TSC)
Object type
Payload
Rocket body
Debris
Shape & HBR
Unknown shape, 0.3 m
Radar Cross Section
Medium (>0.1 m² and <1 m²)

Expand to show TLE details & history
Last TLE update: 11 hours ago

TLE from 11 hours ago
0 CZ-6A DEB
1 54410U 22151EJ  26207.37875626  .00002109  00000-0  58257-3 0  9998
2 54410  98.6880 256.7215 0129318 143.1517 217.8646 14.43023489194027
Epoch: 2026-07-26T09:05Z
TLE epoch observation values (Epoch: 2026-07-26T09:05:24.540Z)
Latitude
-0.00004°
Longitude
176.29172°
Altitude
824.689 km
Speed
7.402 km/s
True Right ascension
17h 06m 53s
True Declination
0° 00' 00"
Sunlit
Object was in full shadow at epoch
Visualization orbit readout
Latitude
Unknown
Longitude
Unknown
Altitude
Unknown
Speed
Unknown
Apparent Right ascension
Unknown
Apparent Declination
Unknown
Sunlit
N/A
Visualization observer readout
Local Sidereal Time
09:25:52
Azimuth
Unknown
Elevation
Unknown
Doppler factor
Unknown
Orbital elements
Apogee altitude
837.776 km
Perigee altitude
653.529 km
Semi-major axis
7,123.789 km
Eccentricity
0.01293
Inclination
98.688°
RAAN
256.7215°
Arg. of periapsis
143.1517°
True anomaly
216.96653°
Mean anomaly
217.8646°
Eccentric anomaly
217.41442°
Mean motion
3.60975 °/min
Orbital period
99.73 mins
BSTAR
0.00058257
Loading maneuver chart data...
Computing Atmospheric mass density...

Documentation

Showing up to 5 results
|